Temp
17 17 17 18 18 18 18 19 19 19 19 19 19 20 20 21 21 21 25 22 21 22 22 23 24 25 26 26 26 26 29 29 29 29 29 27 28 27 27 28 27 25 25 21 19
17 18 18 18 18 18 18 18 19 19 19 19 19 19 20 20 20 23 21 21 22 22 22 25 27 26 28 26 26 28 28 29 29 29 29 28 28 27 27 27 27 24 21 20 20
16 17 17 17 17 18 18 18 18 19 19 19 19 19 20 20 23 24 21 21 21 22 22 24 25 27 27 26 26 27 28 27 27 27 28 27 27 27 27 27 28 27 23 20 20
15 16 16 17 17 17 17 17 18 18 19 19 19 20 20 20 25 21 21 21 21 21 23 24 26 27 27 26 26 26 26 26 25 24 25 26 27 26 27 26 23 23 22 20 20
16 16 16 16 16 16 17 17 17 17 18 18 19 19 20 24 25 21 21 21 21 21 24 25 26 26 26 26 25 26 25 25 25 23 24 24 25 26 26 22 21 19 19 19 18
15 15 16 16 15 16 15 15 16 16 17 18 19 19 20 23 21 21 21 21 21 22 24 25 26 26 26 26 25 25 24 25 25 25 24 23 25 24 26 22 20 20 20 18 17
12 13 14 15 14 14 15 15 15 16 17 18 18 18 21 24 19 19 20 19 20 22 24 23 24 25 25 24 23 23 24 26 26 25 24 23 23 22 26 21 21 21 19 17 16
11 11 12 13 14 14 14 14 15 16 16 17 18 18 23 20 18 19 19 19 19 20 21 21 22 24 24 23 24 24 24 25 25 23 22 23 26 26 22 21 21 21 20 17 15
11 10 11 12 13 13 13 14 15 15 16 17 17 19 23 18 19 19 19 21 20 20 19 20 22 24 22 24 24 24 25 26 26 24 23 22 26 23 22 22 22 21 20 18 16
10 10 11 12 12 12 13 14 14 15 15 16 16 20 20 21 18 18 18 20 21 21 21 22 23 23 23 25 25 26 25 26 25 24 22 24 24 24 22 22 23 23 20 18 17
10 10 10 11 12 12 13 14 17 18 15 22 22 23 20 16 17 18 18 20 21 22 22 22 22 22 24 25 26 25 24 25 26 23 22 24 25 26 24 22 23 24 21 18 16
10 10 10 11 11 11 12 17 18 16 19 19 19 20 18 18 19 18 18 21 21 21 22 20 21 24 25 24 24 23 23 24 25 22 21 23 24 25 25 23 23 24 22 19 15
11 10 10 10 11 11 13 15 15 15 19 21 19 19 18 18 21 19 19 21 21 21 21 23 24 21 21 21 21 22 22 24 24 21 20 22 22 23 24 25 24 21 22 19 16
11 11 10 10 11 13 13 13 14 15 19 22 18 19 18 20 20 18 19 20 19 21 22 22 23 20 20 22 22 22 24 22 22 21 21 21 22 25 25 21 19 18 18 17 16
11 11 10 10 15 13 14 14 14 15 18 22 17 15 18 20 18 15 17 18 21 20 20 22 19 19 20 22 22 22 20 21 21 20 20 21 19 23 25 24 21 18 16 16 15
11 11 11 10 11 13 14 14 15 18 18 17 16 16 16 18 16 15 16 18 19 19 18 21 17 19 21 17 20 19 19 18 18 19 18 20 21 23 24 21 22 18 16 15 13
11 11 11 10 12 13 13 14 15 17 22 19 16 16 18 16 16 17 16 16 19 18 19 20 19 18 18 18 16 18 19 19 18 17 18 18 20 23 24 19 21 17 15 14 13
11 10 10 11 12 13 13 15 14 19 21 18 17 16 17 16 16 15 16 17 18 20 22 20 20 19 18 20 19 17 20 20 18 20 21 14 18 22 21 17 15 18 15 14 12
11 10 10 10 11 12 12 13 15 19 22 20 17 17 16 16 17 15 16 19 20 19 20 21 21 18 18 19 20 18 18 20 17 11 16 20 20 21 15 14 14 15 14 12 11
11 11 11 10 11 11 12 13 15 19 22 23 19 19 18 17 16 16 17 19 19 19 20 22 20 17 16 16 17 18 19 16 17 16 18 22 22 22 15 16 14 13 13 12 11
11 12 12 11 11 11 13 12 15 19 21 21 20 21 21 19 17 16 19 20 20 18 18 20 19 16 15 16 18 16 17 18 19 19 19 20 22 24 23 20 16 14 13 13 12
11 13 11 11 12 12 12 14 16 17 19 19 20 20 20 21 17 17 18 21 19 17 16 19 19 19 18 17 18 19 19 19 18 16 17 19 21 17 22 22 17 16 14 13 12
11 12 11 11 13 12 13 14 15 15 17 18 18 19 21 20 17 19 20 21 19 17 17 17 16 15 17 15 13 15 17 18 18 16 16 17 20 16 16 18 17 17 14 13 12
10 12 12 12 13 14 13 13 13 15 16 17 18 18 18 19 19 20 20 18 18 18 16 17 16 16 18 20 19 16 16 16 17 16 18 18 20 16 16 16 16 16 14 13 12
9 10 9 13 13 13 14 16 14 14 15 16 16 17 17 17 18 18 19 15 13 14 15 16 14 17 17 18 19 18 17 16 16 17 18 20 20 21 17 17 17 16 15 13 12
7 8 8 9 10 12 13 13 15 16 15 14 15 16 17 16 17 17 18 18 16 13 13 13 14 15 14 16 17 17 17 17 16 17 18 19 20 22 19 18 17 16 14 13 12
5 6 8 7 9 10 12 13 14 16 16 16 15 15 15 17 18 19 18 16 17 15 12 12 11 11 13 14 14 11 14 16 17 17 18 17 19 15 17 16 16 15 13 12 12
Height
817 817 817 817 817 816 816 815 815 814 813 813 812 810 809 807 805 804 803 805 804 804 805 806 805 804 803 803 803 801 803 806 804 804 801 804 807 806 808 808 810 815 816 826 827
816 816 816 817 817 816 816 815 814 814 814 813 812 810 808 806 805 804 804 803 803 804 806 805 803 803 801 803 803 802 804 799 796 794 801 804 805 807 811 810 811 819 824 826 827
816 816 816 816 817 816 815 815 814 814 813 813 812 810 808 807 804 801 803 803 804 804 806 806 805 803 804 803 804 803 803 803 805 802 800 806 809 807 809 812 805 811 820 826 828
815 815 816 816 816 815 815 814 815 814 813 812 811 810 808 808 811 803 803 803 804 805 807 806 804 804 806 808 806 809 806 804 808 809 811 812 807 809 808 809 814 818 822 826 828
813 813 814 815 815 815 815 814 814 813 813 812 811 810 808 806 801 803 804 804 805 806 806 805 805 804 808 806 809 809 808 809 809 813 812 813 812 811 808 815 820 824 826 828 830
812 812 813 814 814 814 814 814 814 813 813 812 811 811 811 809 804 803 804 805 807 807 807 806 804 804 805 807 811 808 811 808 809 810 812 817 811 814 803 813 820 822 825 829 832
810 811 812 812 813 813 813 813 813 813 812 812 811 810 808 803 803 803 804 806 807 808 807 809 808 808 806 811 812 812 815 805 804 808 812 815 816 815 801 814 817 820 824 830 833
808 809 810 811 811 812 812 812 813 812 812 812 811 811 804 801 803 803 804 806 807 808 809 810 810 809 809 812 812 815 814 813 804 811 814 817 805 793 808 812 815 818 822 828 834
805 807 809 809 810 811 812 812 812 812 812 811 812 811 801 801 803 803 805 805 808 810 810 811 811 809 814 814 815 812 812 807 805 806 811 815 800 804 809 809 810 815 819 825 830
802 804 807 808 808 810 811 811 810 810 811 811 812 813 801 799 801 803 804 806 807 809 811 811 809 811 811 810 815 803 810 803 808 807 812 808 806 802 807 808 805 808 815 822 825
800 801 804 807 807 809 811 812 812 809 810 796 794 791 796 801 801 803 804 806 807 807 811 810 812 810 802 800 796 801 807 806 795 806 814 804 798 792 797 805 803 801 810 816 823
796 798 802 805 806 807 810 808 804 809 801 794 795 795 796 797 800 802 805 805 806 807 804 817 812 794 792 799 803 809 811 806 797 807 817 805 799 791 787 792 793 793 801 811 822
791 794 799 803 805 807 807 808 807 806 802 785 787 787 792 795 790 794 800 799 803 803 807 801 794 798 804 808 813 808 810 804 805 813 814 809 801 791 779 779 782 793 793 806 818
785 789 795 802 806 802 803 804 807 807 801 778 784 778 785 787 789 790 794 796 802 798 801 799 789 802 806 804 804 807 794 805 809 817 816 807 802 775 770 785 793 799 801 808 815
777 783 789 793 791 794 794 798 805 808 812 759 777 782 780 778 782 794 795 795 791 797 800 790 802 805 805 798 799 802 805 808 809 815 814 808 818 772 763 770 781 794 801 807 814
768 776 782 789 789 787 789 795 805 812 789 772 776 781 783 780 788 793 794 794 791 795 800 791 801 798 794 808 803 810 814 817 818 817 821 804 803 768 765 772 768 785 797 804 813
760 767 773 778 778 785 787 789 809 797 744 759 772 777 774 781 787 785 791 792 786 802 794 793 794 796 799 806 814 810 813 816 821 826 806 796 795 763 754 767 767 780 792 801 810
750 759 763 769 776 779 785 787 793 734 744 754 761 770 772 777 780 785 786 784 780 773 770 786 789 785 789 783 793 805 799 802 815 802 788 816 794 762 757 769 779 776 790 801 811
745 750 754 756 766 771 773 773 755 705 734 748 768 767 772 773 772 781 776 765 760 769 773 773 774 777 784 782 783 801 804 791 809 836 810 776 769 756 773 779 783 783 790 798 806
735 741 737 749 753 760 753 747 730 717 721 722 741 744 752 762 770 772 767 749 753 756 757 756 769 781 789 791 790 790 784 810 808 809 797 758 752 746 768 765 776 784 788 795 802
730 727 720 737 749 745 729 732 712 715 715 723 727 729 729 741 753 759 742 737 742 752 759 756 765 787 792 785 775 793 792 788 781 778 775 767 741 721 732 744 758 772 778 784 793
718 709 714 726 728 718 720 689 714 718 717 721 717 719 723 728 744 746 735 723 731 745 761 753 757 762 767 769 767 765 768 774 777 789 779 766 736 740 728 732 747 757 767 774 783
707 705 707 709 700 705 709 710 716 718 712 717 717 715 715 722 738 724 722 717 730 736 741 752 766 773 767 776 784 776 764 764 764 773 765 772 734 746 749 745 750 754 764 771 778
706 694 694 688 681 692 701 700 708 707 712 710 709 713 718 713 713 710 714 724 727 730 735 735 743 747 738 732 736 756 759 760 761 764 743 731 730 748 748 749 751 753 760 766 772
697 690 691 675 675 680 686 680 690 702 700 706 708 703 707 717 712 708 712 729 737 734 736 737 743 738 731 729 728 732 740 748 751 726 743 707 722 720 734 739 739 744 753 761 769
690 694 695 693 687 674 674 675 673 675 685 690 696 690 701 701 691 702 707 711 718 736 739 740 740 740 737 729 730 732 728 723 728 727 725 716 706 707 719 728 733 738 746 753 760
691 687 689 694 690 685 666 661 662 667 670 671 677 692 692 675 678 688 693 700 700 714 734 741 746 746 730 731 736 747 699 720 707 710 707 713 691 717 720 728 730 735 744 749 753
Wind_Speed
4 3 2 0 1 2 3 4 5 6 7 9 11 12 12 11 11 4 2 1 2 4 3 2 2 1 1 2 2 3 4 6 5 7 5 7 7 4 1 3 2 3 5 5 4
4 2 2 2 2 3 3 4 5 6 7 8 11 12 13 13 6 4 3 3 3 5 2 5 4 3 2 1 1 4 4 2 3 2 4 8 6 5 5 6 5 5 6 5 5
6 5 4 3 3 4 5 6 6 7 7 9 11 12 13 11 5 2 1 3 5 5 2 2 1 2 2 2 0 0 5 2 4 3 1 5 4 3 6 7 2 6 7 5 5
9 7 6 5 5 5 5 6 7 8 8 9 11 12 12 4 4 1 2 4 5 4 3 3 3 3 3 3 1 5 1 1 2 3 2 4 1 5 7 3 7 6 7 5 5
12 10 8 7 6 6 7 7 7 8 9 10 11 10 5 5 2 1 3 5 5 4 3 2 4 2 5 1 3 5 3 2 3 3 4 2 8 8 7 7 7 7 6 6 5
14 12 10 9 8 7 7 7 7 8 9 10 9 7 4 8 0 2 4 6 4 4 3 3 3 2 2 2 5 2 3 4 5 8 7 7 10 3 7 12 8 7 6 4 5
15 14 12 10 9 8 7 8 8 8 8 9 7 3 6 8 2 3 4 3 3 3 4 1 1 4 1 2 1 2 6 8 11 9 5 7 10 14 7 10 10 9 6 5 5
16 15 13 11 10 9 8 8 8 8 8 6 5 3 6 4 3 4 5 3 3 2 2 2 1 2 3 3 3 4 4 7 7 8 3 7 10 7 10 12 12 10 7 5 4
18 16 14 12 10 10 9 8 8 8 7 5 3 3 5 1 4 6 5 4 6 4 4 4 2 2 4 6 6 8 10 9 5 7 5 11 5 6 10 12 12 10 9 7 6
20 18 16 13 11 10 9 7 8 8 4 3 2 4 6 2 4 6 4 9 3 9 5 5 5 7 8 10 10 9 11 9 10 5 7 10 14 7 11 13 12 11 9 8 7
23 19 17 15 12 9 4 4 5 4 6 8 3 3 4 5 5 5 6 8 6 8 9 8 9 13 17 16 17 8 9 13 9 3 4 13 15 14 13 14 15 15 12 10 9
26 21 18 15 12 8 5 5 4 3 7 16 12 8 3 6 4 8 10 10 9 13 11 5 15 17 10 9 12 12 13 16 14 3 4 12 17 16 16 17 19 17 14 12 10
27 22 19 15 11 11 12 7 1 2 6 9 9 8 6 11 7 14 16 7 9 15 15 17 3 4 9 8 11 14 15 15 14 2 11 13 20 24 24 21 17 10 12 12 12
28 24 21 16 10 11 9 12 4 1 6 14 9 7 8 8 8 6 20 5 6 15 14 13 9 6 9 14 13 15 13 13 12 7 10 4 9 9 7 13 13 12 12 13 12
32 29 28 29 5 14 7 13 11 3 8 3 8 3 6 14 11 6 8 6 13 10 8 5 9 12 13 16 10 8 2 6 9 11 13 16 8 11 16 17 16 14 14 14 13
36 35 32 31 12 13 14 19 10 5 16 6 6 8 10 12 4 6 7 1 2 7 7 8 2 6 6 4 6 9 5 3 3 6 9 17 16 9 10 8 12 14 15 16 15
40 39 41 34 21 18 23 15 5 13 6 11 7 9 17 10 9 10 15 15 14 9 16 13 14 6 5 6 3 12 8 4 5 6 8 2 12 15 6 7 6 16 18 18 16
43 44 47 40 26 27 25 8 10 34 33 10 5 10 14 13 9 10 13 13 23 18 8 12 9 22 16 20 9 20 16 6 6 6 4 2 8 6 3 8 5 11 16 16 16
45 45 39 44 36 38 13 17 20 42 22 17 8 8 14 11 7 11 15 16 15 22 15 13 9 7 9 5 14 7 12 10 4 2 4 7 10 8 7 8 9 11 16 18 17
38 29 35 42 41 29 16 22 26 25 23 19 28 19 18 16 13 16 17 13 14 24 14 5 5 6 5 3 4 9 9 5 6 5 8 10 14 10 9 15 15 15 17 17 17
32 6 19 41 43 11 17 19 31 24 24 26 25 22 22 15 18 13 10 7 19 20 20 9 6 6 7 13 18 8 9 9 5 8 5 6 9 9 15 16 19 17 17 19 19
9 11 28 48 15 9 17 40 18 26 20 12 15 23 20 18 15 17 18 13 19 18 16 12 3 9 13 2 10 16 14 20 7 6 5 6 14 3 5 12 15 17 16 17 18
3 8 31 42 16 15 20 22 24 20 30 23 17 16 19 18 10 21 15 13 16 18 20 13 6 3 6 3 1 9 16 13 18 1 16 8 7 4 4 7 10 13 15 15 16
3 5 7 11 18 25 22 25 24 22 25 28 17 12 17 22 18 12 19 7 15 15 7 15 7 14 19 10 9 10 15 21 19 12 18 27 17 8 11 13 13 12 14 17 16
4 2 2 5 16 26 29 23 32 26 27 24 21 29 25 18 21 25 14 6 3 6 6 11 13 17 24 22 17 11 18 23 28 35 16 27 25 16 16 16 17 15 13 14 14
5 4 1 3 5 21 29 30 32 33 22 28 26 32 26 26 27 18 21 16 10 9 8 2 11 17 25 23 22 25 20 25 30 31 30 30 29 10 17 13 11 13 13 14 15
4 2 5 3 4 6 12 31 33 26 25 33 36 27 27 38 31 26 15 8 10 15 14 11 7 8 17 15 18 6 39 23 27 30 26 28 29 5 10 13 14 13 12 14 15
Wind_Direction
175 175 160 174 353 353 350 350 355 358 2 355 352 347 343 337 329 326 263 228 202 182 176 240 243 255 224 99 350 301 242 217 197 203 167 148 187 142 57 241 111 41 30 54 26
211 219 243 271 296 318 328 336 340 350 347 348 346 343 339 334 317 256 257 232 203 173 209 221 202 213 170 137 221 268 264 195 17 163 180 164 209 168 217 201 180 135 102 75 71
224 234 245 264 284 301 316 325 330 333 340 341 339 338 334 332 281 92 266 180 163 164 218 226 202 250 222 275 199 173 289 122 146 115 116 161 202 211 234 238 248 218 147 105 86
234 240 249 261 275 289 302 310 320 329 332 335 336 334 330 318 305 101 167 168 160 150 164 176 223 232 259 238 217 234 182 185 123 146 175 201 307 240 243 46 85 82 105 117 88
236 241 252 263 271 280 289 301 315 326 326 327 330 332 340 256 301 190 170 166 150 161 203 223 246 274 259 222 216 245 179 202 158 172 239 313 247 260 247 130 121 115 122 102 85
238 242 247 257 268 275 284 297 311 320 322 321 323 323 286 264 260 215 181 169 181 200 201 226 302 283 287 249 244 29 231 228 221 227 228 232 247 245 234 146 159 161 132 109 78
235 239 243 248 255 266 277 290 302 313 318 320 325 313 254 273 197 189 170 167 185 218 216 270 225 238 162 200 172 262 264 232 230 219 236 219 245 228 196 169 179 173 158 118 76
241 239 237 240 247 258 268 280 293 303 307 313 326 303 271 226 191 186 163 125 124 108 124 115 171 132 283 118 185 245 249 251 109 171 161 204 266 160 150 174 180 177 164 148 103
238 239 236 236 243 250 259 273 288 296 294 302 310 268 261 120 192 187 182 174 133 108 94 123 177 222 177 222 234 209 262 212 183 197 151 206 272 140 176 191 183 185 174 172 157
234 237 235 233 236 245 257 273 288 294 296 271 256 255 185 180 144 159 156 158 147 145 136 185 207 219 223 215 233 265 226 246 255 146 219 221 249 175 193 208 208 197 184 188 181
237 234 234 230 227 234 259 282 236 206 210 219 226 257 144 121 129 171 161 157 148 200 207 206 217 220 224 228 255 293 285 275 276 110 272 254 262 260 189 213 222 214 202 198 187
237 233 229 223 222 206 207 236 355 12 293 230 242 250 186 179 153 176 167 187 195 209 205 188 231 240 240 274 240 244 259 262 271 142 253 273 264 260 250 209 223 219 209 202 179
232 225 220 212 205 198 211 221 263 9 260 243 203 223 196 176 214 181 182 203 211 217 203 227 217 253 196 205 221 234 243 260 272 169 234 276 269 250 244 244 223 244 241 195 189
225 219 207 199 194 199 213 223 230 348 268 245 204 212 163 185 221 155 196 189 207 221 216 240 228 160 204 227 220 248 231 255 266 262 270 167 282 262 230 210 217 220 212 188 184
223 212 199 194 191 184 173 190 186 283 274 26 132 102 164 189 121 174 179 186 209 188 181 197 188 203 220 231 209 260 48 237 251 258 274 253 267 267 241 225 212 207 202 196 180
217 209 200 206 216 188 168 150 142 209 241 164 133 168 163 198 161 115 171 201 342 196 237 256 24 208 221 68 214 128 113 110 224 251 252 234 226 256 207 228 234 176 188 182 178
215 208 205 194 203 183 166 134 164 228 129 190 174 178 196 179 176 181 181 188 185 194 223 220 223 175 180 147 155 200 176 239 238 212 250 109 216 248 184 148 183 179 181 179 177
219 211 207 202 193 176 165 161 202 231 223 105 149 171 189 170 198 187 180 204 219 221 255 210 225 199 199 211 188 197 200 207 249 228 255 71 230 236 249 108 116 177 175 173 177
224 209 205 201 193 181 169 192 214 226 222 200 153 190 207 204 201 179 207 216 203 209 197 204 230 168 183 206 202 179 222 255 284 186 272 217 242 263 160 177 168 166 171 178 183
205 209 209 199 186 186 189 207 225 226 223 212 213 197 197 195 186 192 190 221 210 197 212 219 232 179 150 158 238 217 162 179 218 229 240 249 249 237 212 202 183 178 184 185 186
213 220 194 192 187 202 204 208 223 213 212 225 219 220 226 198 198 195 209 197 200 184 199 207 232 133 153 203 188 182 208 224 249 228 249 266 250 192 204 197 189 186 187 185 187
218 225 174 173 198 206 207 216 207 214 233 242 237 220 213 205 201 206 215 212 189 155 184 201 246 229 218 94 262 238 218 207 219 190 244 270 260 147 185 183 177 187 183 185 188
236 213 179 179 207 206 223 224 226 212 214 215 220 224 226 213 215 221 213 215 176 173 169 167 216 237 252 186 182 224 221 233 230 8 228 222 247 145 169 174 180 173 177 181 181
259 212 195 213 202 209 211 218 218 217 227 222 224 215 221 228 211 234 218 162 190 201 184 170 165 205 232 229 169 206 213 211 216 226 235 235 247 186 197 190 184 183 176 181 182
202 273 11 212 212 207 211 221 220 215 218 210 224 227 217 228 224 225 209 139 204 220 184 193 223 225 240 251 264 225 212 206 212 228 221 248 236 221 196 195 193 184 175 173 181
154 170 233 285 298 223 207 215 219 219 204 213 221 221 223 227 222 215 213 205 198 182 191 229 236 232 252 241 245 246 237 219 218 228 234 246 251 239 189 197 193 184 177 185 194
324 317 131 228 303 275 233 221 222 223 219 220 218 221 218 226 227 236 241 248 238 193 187 173 217 202 244 229 245 279 236 225 229 223 222 231 241 143 178 192 194 188 184 197 199